This demonstration page uses our WeatherBlox Daily Observations layout. Learn more.

38.88101, -77.10428

Hourly Observations for April 21, 2018

Temp ( °F °C ) Dew Point ( °F °C ) Humidity (%) Winds ( mph kmh ) Pressure ( in mb ) Visibility ( mi km ) Precip ( " mm )
12:52 am 00:52 Clear 49 9.4 30 -1.1 48 48 ENE 12 19 30.41 1030 10 16.0934 0 0
1:52 am 01:52 Clear 47 8.3 29 -1.7 50 50 NE 10 17 30.44 1031 10 16.0934 0 0
2:52 am 02:52 Clear 45 7.2 27 -2.8 49 49 NNE 9 15 30.44 1031 10 16.0934 0 0
3:52 am 03:52 Clear 44 6.7 27 -2.8 51 51 NE 6 9 30.46 1032 10 16.0934 0 0
4:52 am 04:52 Clear 43 6.1 27 -2.8 53 53 NE 6 9 30.45 1031 10 16.0934 0 0
5:52 am 05:52 Mostly Clear 42 5.6 28 -2.2 58 58 ENE 5 7 30.47 1032 10 16.0934 0 0
6:52 am 06:52 Mostly Cloudy 42 5.6 27 -2.8 55 55 ESE 3 6 30.48 1032 10 16.0934 0 0
7:52 am 07:52 Mostly Cloudy 45 7.2 28 -2.2 52 52 Calm 30.49 1033 10 16.0934 0 0
8:52 am 08:52 Mostly Cloudy 48 8.9 25 -3.9 41 41 Calm 30.5 1033 10 16.0934 0 0
9:52 am 09:52 Mostly Cloudy 49 9.4 24 -4.4 38 38 Calm 30.51 1033 10 16.0934 0 0
10:52 am 10:52 Mostly Cloudy 52 11.1 28 -2.2 40 40 E 6 9 30.49 1033 10 16.0934 0 0
11:52 am 11:52 Mostly Cloudy 55 12.8 28 -2.2 35 35 NNE 6 9 30.47 1032 10 16.0934 0 0
12:52 pm 12:52 Mostly Cloudy 58 14.4 29 -1.7 33 33 NNE 9 15 30.44 1031 10 16.0934 0 0
1:52 pm 13:52 Mostly Cloudy 59 15 28 -2.2 31 31 NE 7 11 30.4 1030 10 16.0934 0 0
2:52 pm 14:52 Mostly Cloudy 59 15 29 -1.7 32 32 SE 6 9 30.38 1029 10 16.0934 0 0
3:52 pm 15:52 Mostly Cloudy 61 16.1 30 -1.1 31 31 E 6 9 30.36 1028 10 16.0934 0 0
4:52 pm 16:52 Mostly Cloudy 60 15.6 31 -0.6 33 33 SE 5 7 30.35 1028 10 16.0934 0 0
5:52 pm 17:52 Mostly Cloudy 60 15.6 32 0 35 35 S 7 11 30.35 1028 10 16.0934 0 0
6:52 pm 18:52 Mostly Cloudy 59 15 31 -0.6 35 35 S 8 13 30.35 1028 10 16.0934 0 0
7:52 pm 19:52 Cloudy 58 14.4 32 0 38 38 S 5 7 30.35 1028 10 16.0934 0 0
8:52 pm 20:52 Mostly Cloudy 58 14.4 26 -3.3 29 29 SSW 3 6 30.37 1028 10 16.0934 0 0
9:52 pm 21:52 Cloudy 54 12.2 35 1.7 49 49 SSW 3 6 30.38 1029 10 16.0934 0 0
10:52 pm 22:52 Cloudy 54 12.2 35 1.7 49 49 S 6 9 30.39 1029 10 16.0934 0 0
11:52 pm 23:52 Mostly Cloudy 53 11.7 36 2.2 52 52 S 3 6 30.39 1029 10 16.0934 0 0

Powered by AerisWeather